Regional Weather Roundup
Issued by NWS

Home | Current Version | Previous Version | Graphics & Text | Print | Product List | Glossary On
Versions: 1 2 3 4 5 6 7 8 9 10 11 12 13 14 15 16 17 18 19 20 21 22 23 24 25 26 27 28 29 30 31 32 33 34 35 36 37 38 39 40 41 42 43 44 45 46 47 48 49 50
000
ASUS43 KLMK 280502
RWRKY
KENTUCKY REGIONAL WEATHER ROUNDUP
NATIONAL WEATHER SERVICE LOUISVILLE KY
100 AM EDT WED JUN 28 2017

NOTE "FAIR" INDICATES FEW OR NO CLOUDS BELOW 12,000 FEET
WITH NO SIGNIFICANT WEATHER AND/OR OBSTRUCTIONS TO VISIBILITY.

KYZ001>023-026-027-061>063-070>075-280600-
WESTERN AND SOUTH CENTRAL KENTUCKY

CITY           SKY/WX    TMP DP  RH WIND       PRES   REMARKS
PADUCAH        CLEAR     66  56  70 SE6       30.07S
HENDERSON      NOT AVBL
OWENSBORO      CLEAR     63  56  78 CALM      30.11R
HOPKINSVILLE   PTCLDY    66  56  70 CALM      30.10S
BOWLING GREEN  CLEAR     61  57  87 CALM      30.12R
GLASGOW        NOT AVBL
$$

KYZ024-025-028>034-038-045-046-053-280600-
NORTH CENTRAL KENTUCKY

CITY           SKY/WX    TMP DP  RH WIND       PRES   REMARKS
LOUISVILLE/SDF CLEAR     68  50  52 E3        30.13R
LOUISVILLE/LOU CLEAR     65  53  65 CALM      30.14R
FORT KNOX      CLEAR     57  53  86 CALM      30.12S
$$

KYZ035>037-039>044-047>052-055>060-089>105-280600-
NORTHEAST KENTUCKY

CITY           SKY/WX    TMP DP  RH WIND       PRES   REMARKS
LEXINGTON      CLEAR     57  49  74 CALM      30.15R
COVINGTON      CLEAR     58  52  80 CALM      30.14R
FRANKFORT      CLEAR     57  51  80 CALM      30.13R
$$

KYZ054-064>069-076>088-106>120-280600-
SOUTHEAST KENTUCKY

CITY           SKY/WX    TMP DP  RH WIND       PRES   REMARKS
JACKSON        CLEAR     62  48  60 SE3       30.16R
LONDON         CLEAR     57  53  86 CALM      30.16R
SOMERSET       NOT AVBL
MIDDLESBORO    CLEAR     55  54  96 CALM      30.18S
MONTICELLO     CLEAR     54  52  93 CALM      30.17S
$$





USA.gov is the U.S. government's official web portal to all federal, state and local government web resources and services.